This is the latest recevied weather packets stored in our database for station/object N3WMC. If no packets are shown the sender has not sent any weather packets the latest 10 day(s).
| Time | Temp. | Humidity | Pressure | Rain* | Wind** | Luminosity | Snow |
|---|---|---|---|---|---|---|---|
| 1777849794 | 14.44° C | 38% | 1014.1 hPa | 0 mm | - | 54 W/m² | - |
| 1777849490 | 14.44° C | 38% | 1014.2 hPa | 0 mm | - | 71 W/m² | - |
| 1777849188 | 14.44° C | 38% | 1014.4 hPa | 0 mm | - | 54 W/m² | - |
| 1777848885 | 14.44° C | 38% | 1014.3 hPa | 0 mm | - | 51 W/m² | - |
| 1777848580 | 14.44° C | 38% | 1014.3 hPa | 0 mm | - | 70 W/m² | - |
| 1777848277 | 14.44° C | 37% | 1014.3 hPa | 0 mm | - | 84 W/m² | - |
| 1777847975 | 14.44° C | 37% | 1014.4 hPa | 0 mm | - | 63 W/m² | - |
| 1777847673 | 14.44° C | 37% | 1014.4 hPa | 0 mm | - | 55 W/m² | - |
| 1777847368 | 15° C | 36% | 1014.5 hPa | 0 mm | - | 59 W/m² | - |
| 1777847067 | 15° C | 36% | 1014.5 hPa | 0 mm | - | 98 W/m² | - |
| 1777846765 | 15.56° C | 35% | 1014.5 hPa | 0 mm | - | 148 W/m² | - |
| 1777846463 | 15° C | 36% | 1014.6 hPa | 0 mm | - | 184 W/m² | - |
| 1777846159 | 15.56° C | 35% | 1014.5 hPa | 0 mm | - | 74 W/m² | - |
| 1777845856 | 15.56° C | 35% | 1014.4 hPa | 0 mm | - | 207 W/m² | - |
| 1777845553 | 15° C | 36% | 1014.2 hPa | 0 mm | - | 216 W/m² | - |
| 1777845250 | 15.56° C | 37% | 1014.4 hPa | 0 mm | - | 219 W/m² | - |
| 1777844948 | 15° C | 39% | 1014.4 hPa | 0 mm | - | 145 W/m² | - |
| 1777844644 | 15° C | 37% | 1014.4 hPa | 0 mm | - | 113 W/m² | - |
| 1777844342 | 15.56° C | 35% | 1014.4 hPa | 0 mm | - | 302 W/m² | - |
| 1777844040 | 15° C | 37% | 1014.3 hPa | 0 mm | - | 287 W/m² | - |
| 1777843736 | 15.56° C | 36% | 1014.2 hPa | 0 mm | - | 94 W/m² | - |
| 1777843434 | 15.56° C | 35% | 1014.3 hPa | 0 mm | - | 360 W/m² | - |
| 1777843131 | 15° C | 36% | 1014.2 hPa | 0 mm | - | 344 W/m² | - |
| 1777842828 | 15.56° C | 34% | 1014.3 hPa | 0 mm | - | 414 W/m² | - |
| 1777842523 | 15° C | 37% | 1014.3 hPa | 0 mm | - | 118 W/m² | - |
* Rain latest hour (hover to see other rain measurements)
** Current wind speed in m/s (hover to see current wind gust speed)